Cloud_Cover
100 96 48 57 50 71 78 89 99 100 80 100 95 79 99 95 100 100 100 100 100 100 100 100 100 100 100 100 100 100 32 35 54 5 5 5 4 1 10 3 9 7 2
53 50 5 5 6 25 82 98 100 100 99 100 100 94 99 100 100 100 100 100 99 100 100 100 100 100 100 100 100 100 99 12 93 4 4 3 43 3 0 39 89 85 80
5 7 5 2 5 40 87 51 52 82 100 74 100 100 100 100 92 100 100 100 100 100 100 100 100 100 100 100 100 100 100 5 79 38 5 5 18 78 57 60 0 0 2
45 7 31 5 5 4 92 98 52 98 98 100 100 96 87 100 100 100 100 85 99 100 100 100 100 100 100 100 100 100 100 100 67 8 5 5 5 3 12 0 0 1 8
5 6 14 44 28 4 5 28 8 6 36 47 100 100 100 74 100 100 100 100 72 100 100 100 95 100 100 100 100 100 100 100 9 53 6 5 5 7 2 7 5 0 0
5 5 5 61 100 55 6 49 9 11 50 50 100 100 100 93 100 100 96 100 82 100 100 100 100 100 100 100 100 100 100 100 78 35 5 5 5 4 0 0 9 0 0
25 5 32 28 100 45 35 40 28 46 56 100 100 100 100 100 100 100 75 100 100 94 100 100 100 100 100 100 100 100 100 100 63 25 5 5 5 5 2 2 0 0 0
4 1 10 5 38 7 5 5 47 30 31 88 100 100 95 100 100 100 99 100 100 100 99 100 100 90 98 100 100 100 100 96 99 17 17 1 5 10 0 0 0 0 0
0 3 5 4 7 1 13 5 14 28 37 100 100 83 97 100 100 100 93 100 100 100 100 100 100 100 100 100 100 100 100 73 69 34 13 9 5 1 0 0 0 0 0
0 0 5 3 1 3 5 4 8 19 58 89 100 100 84 88 100 89 91 93 98 100 100 100 100 100 81 100 100 100 99 85 5 9 5 5 6 5 5 0 0 0 0
0 0 0 5 0 0 0 0 16 39 21 21 57 93 87 81 79 97 88 100 92 100 100 100 100 100 100 100 96 100 87 54 5 5 5 5 5 23 19 38 8 0 0
0 0 0 1 0 2 0 0 0 22 22 28 31 32 37 47 72 97 91 100 100 100 100 100 100 100 80 100 97 100 84 5 5 5 5 5 5 5 64 74 100 98 68
0 0 0 0 5 5 4 0 0 0 13 4 24 6 20 46 99 75 96 100 99 89 84 100 100 100 96 65 99 100 100 100 21 5 5 5 5 5 5 5 9 6 48
0 0 1 5 0 0 0 2 0 1 8 5 11 18 30 41 94 82 100 100 100 100 100 100 100 100 100 100 99 100 95 100 62 19 5 0 3 5 4 2 5 5 5
0 0 0 0 0 0 0 11 12 0 18 5 5 28 82 39 80 91 100 100 100 100 100 100 100 100 100 100 99 96 95 100 100 22 39 5 5 5 0 0 4 5 5
0 0 0 0 0 0 0 16 47 27 15 3 5 30 76 40 84 100 100 100 100 100 100 100 100 100 100 100 100 96 100 100 100 96 95 84 5 5 5 0 1 4 4
0 1 2 0 0 0 0 0 0 0 27 11 80 80 26 100 100 100 100 100 100 100 100 100 99 100 84 100 100 100 96 99 94 100 98 87 42 85 57 5 5 5 5
0 1 5 5 1 0 0 0 5 5 5 6 86 100 59 100 100 96 73 100 100 100 86 63 70 62 100 100 100 100 100 100 100 100 100 100 100 100 100 86 92 67 89
0 0 0 4 4 0 0 0 0 0 5 5 7 20 53 87 98 100 98 28 31 87 91 69 88 100 54 39 93 100 100 100 100 100 100 100 98 100 82 48 97 100 100
13 0 0 0 0 0 0 0 0 3 5 0 0 0 0 5 0 0 24 27 20 34 74 78 90 100 82 23 40 49 98 100 88 89 100 100 100 100 100 100 97 99 100
5 25 9 19 23 2 1 0 0 0 0 1 3 0 0 34 0 0 6 3 3 47 100 93 100 100 17 33 5 10 55 100 100 96 96 100 100 100 100 100 100 100 100
32 29 41 38 98 1 5 0 0 0 0 0 0 0 0 14 27 1 0 0 5 37 73 100 100 77 20 9 3 2 5 4 35 95 63 26 43 100 100 100 100 100 100
76 82 44 40 7 2 0 0 1 1 6 26 2 0 0 0 4 0 63 27 45 14 29 22 53 47 58 41 16 33 28 17 8 36 22 28 26 95 100 100 90 69 70
83 41 23 44 33 5 1 18 3 14 13 6 5 28 3 5 4 0 0 6 25 29 6 6 38 33 45 24 36 18 32 38 41 25 42 33 1 0 0 0 2 10 38
100 100 18 16 40 8 20 26 27 5 4 2 1 0 0 1 71 87 63 5 5 5 33 5 5 35 99 95 33 67 53 65 9 20 28 22 37 94 70 4 1 99 100
99 100 100 89 53 36 16 45 100 98 30 7 19 9 10 9 80 92 59 59 100 100 100 92 93 93 58 6 55 19 5 50 34 4 100 100 75 20 99 90 98 30 2